| time (UTC) | temp F | wind direction | speed knots | gust knots | rain 1hr in | rain 24hr in | rain mn in | humidity % | barometer mb |
| 20260831180038 | 94 | 108 | 4.3 | 0.0 | 0.00 | 0.00 | 0.00 | 18 | 1007.8 |
| 20260831174535 | 94 | 117 | 3.5 | 0.0 | 0.00 | 0.00 | 0.00 | 17 | 1007.9 |
| 20260831173033 | 94 | 84 | 4.3 | 0.0 | 0.00 | 0.00 | 0.00 | 17 | 1008.0 |
| 20260831171530 | 94 | 113 | 2.6 | 0.0 | 0.00 | 0.00 | 0.00 | 15 | 1007.9 |
| 20260831170033 | 92 | 16 | 3.5 | 0.0 | 0.00 | 0.00 | 0.00 | 15 | 1007.8 |
| 20260831164525 | 92 | 171 | 2.6 | 0.0 | 0.00 | 0.00 | 0.00 | 16 | 1007.8 |
| 20260831163026 | 91 | 127 | 2.6 | 0.0 | 0.00 | 0.00 | 0.00 | 15 | 1007.8 |
| 20260831161534 | 91 | 106 | 1.7 | 0.0 | 0.00 | 0.00 | 0.00 | 15 | 1007.8 |
| 20260831160020 | 90 | 83 | 2.6 | 0.0 | 0.00 | 0.00 | 0.00 | 15 | 1007.8 |
| 20260831154519 | 90 | 57 | 1.7 | 0.0 | 0.00 | 0.00 | 0.00 | 14 | 1007.7 |
| 20260831153018 | 89 | 81 | 0.9 | 0.0 | 0.00 | 0.00 | 0.00 | 15 | 1007.8 |
| 20260831151516 | 87 | 95 | 2.6 | 0.0 | 0.00 | 0.00 | 0.00 | 17 | 1007.8 |
| 20260831150015 | 87 | 107 | 1.7 | 0.0 | 0.00 | 0.00 | 0.00 | 17 | 1007.7 |
| 20260831144515 | 85 | 129 | 1.7 | 0.0 | 0.00 | 0.00 | 0.00 | 19 | 1007.7 |
| 20260831143015 | 84 | 59 | 1.7 | 0.0 | 0.00 | 0.00 | 0.00 | 20 | 1007.4 |
| 20260831141510 | 83 | 79 | 1.7 | 0.0 | 0.00 | 0.00 | 0.00 | 20 | 1007.2 |
| 20260831140008 | 82 | 85 | 1.7 | 0.0 | 0.00 | 0.00 | 0.00 | 21 | 1006.9 |
| 20260831134506 | 81 | 308 | 1.7 | 0.0 | 0.00 | 0.00 | 0.00 | 21 | 1006.6 |
| 20260831133004 | 81 | 80 | 1.7 | 0.0 | 0.00 | 0.00 | 0.00 | 21 | 1006.4 |
| 20260831131502 | 80 | 94 | 3.5 | 0.0 | 0.00 | 0.00 | 0.00 | 22 | 1006.3 |
| 20260831124600 | 80 | 300 | 0.9 | 0.0 | 0.00 | 0.00 | 0.00 | 22 | 1006.0 |
| 20260831123057 | 79 | 300 | 0.9 | 0.0 | 0.00 | 0.00 | 0.00 | 22 | 1006.0 |
| 20260831121555 | 80 | 300 | 1.7 | 0.0 | 0.00 | 0.00 | 0.00 | 22 | 1005.9 |
| 20260831120054 | 80 | 327 | 1.7 | 0.0 | 0.00 | 0.00 | 0.00 | 21 | 1005.7 |
| 20260831114551 | 81 | 32 | 0.9 | 0.0 | 0.00 | 0.00 | 0.00 | 21 | 1005.8 |
| 20260831113050 | 82 | 32 | 1.7 | 0.0 | 0.00 | 0.00 | 0.00 | 20 | 1005.8 |
| 20260831111546 | 83 | 175 | 1.7 | 0.0 | 0.00 | 0.00 | 0.00 | 19 | 1005.8 |
| 20260831110151 | 83 | 139 | 1.7 | 0.0 | 0.00 | 0.00 | 0.00 | 19 | 1005.7 |
| 20260831104523 | 83 | 102 | 4.3 | 0.0 | 0.00 | 0.00 | 0.00 | 19 | 1005.5 |
| 20260831103015 | 85 | 167 | 1.7 | 0.0 | 0.00 | 0.00 | 0.00 | 18 | 1005.4 |
| 20260831101506 | 86 | 113 | 2.6 | 0.0 | 0.00 | 0.00 | 0.00 | 17 | 1005.3 |
| 20260831100005 | 87 | 267 | 4.3 | 0.0 | 0.00 | 0.00 | 0.00 | 16 | 1005.1 |
| 20260831094556 | 87 | 202 | 3.5 | 0.0 | 0.00 | 0.00 | 0.00 | 17 | 1005.2 |
| 20260831093059 | 87 | 157 | 3.5 | 0.0 | 0.00 | 0.00 | 0.00 | 16 | 1005.4 |
| 20260831091534 | 88 | 260 | 7.0 | 0.0 | 0.00 | 0.00 | 0.00 | 15 | 1005.2 |
| 20260831090033 | 88 | 269 | 4.3 | 0.0 | 0.00 | 0.00 | 0.00 | 16 | 1005.3 |
| 20260831084642 | 87 | 302 | 1.7 | 0.0 | 0.00 | 0.00 | 0.00 | 17 | 1005.6 |
| 20260831083027 | 88 | 279 | 3.5 | 0.0 | 0.00 | 0.00 | 0.00 | 16 | 1005.7 |
| 20260831081526 | 88 | 239 | 3.5 | 0.0 | 0.00 | 0.00 | 0.00 | 17 | 1005.9 |
| 20260831080041 | 89 | 250 | 7.0 | 0.0 | 0.00 | 0.00 | 0.00 | 16 | 1005.8 |
| 20260831074524 | 89 | 243 | 6.1 | 0.0 | 0.00 | 0.00 | 0.00 | 16 | 1005.9 |
| 20260831073023 | 88 | 305 | 4.3 | 0.0 | 0.00 | 0.00 | 0.00 | 16 | 1005.9 |
| 20260831071535 | 89 | 282 | 6.1 | 0.0 | 0.00 | 0.00 | 0.00 | 16 | 1005.9 |
| 20260831070018 | 90 | 246 | 7.8 | 0.0 | 0.00 | 0.00 | 0.00 | 16 | 1005.8 |
| 20260831064517 | 90 | 253 | 7.8 | 0.0 | 0.00 | 0.00 | 0.00 | 17 | 1005.9 |
| 20260831063017 | 90 | 254 | 7.8 | 0.0 | 0.00 | 0.00 | 0.00 | 17 | 1005.9 |
| 20260831061515 | 90 | 240 | 6.1 | 0.0 | 0.00 | 0.00 | 0.00 | 17 | 1005.7 |
| 20260831054514 | 90 | 1 | 2.6 | 0.0 | 0.00 | 0.00 | 0.00 | 17 | 1005.6 |
| 20260831053014 | 90 | 298 | 6.1 | 0.0 | 0.00 | 0.00 | 0.00 | 17 | 1005.4 |
| 20260831051516 | 90 | 268 | 4.3 | 0.0 | 0.00 | 0.00 | 0.00 | 17 | 1005.3 |
| 20260831050012 | 90 | 285 | 6.1 | 0.0 | 0.00 | 0.00 | 0.00 | 18 | 1005.4 |
| 20260831044511 | 91 | 281 | 7.8 | 0.0 | 0.00 | 0.00 | 0.00 | 17 | 1005.2 |
| 20260831043011 | 91 | 274 | 7.0 | 0.0 | 0.00 | 0.00 | 0.00 | 18 | 1005.1 |
| 20260831041518 | 91 | 258 | 5.2 | 0.0 | 0.00 | 0.00 | 0.00 | 17 | 1005.0 |
| 20260831040016 | 91 | 265 | 7.0 | 0.0 | 0.00 | 0.00 | 0.00 | 18 | 1004.9 |
| 20260831034510 | 91 | 266 | 7.8 | 0.0 | 0.00 | 0.00 | 0.00 | 18 | 1004.7 |
| 20260831033018 | 92 | 273 | 9.6 | 0.0 | 0.00 | 0.00 | 0.00 | 17 | 1004.4 |
| 20260831031508 | 92 | 262 | 9.6 | 0.0 | 0.00 | 0.00 | 0.00 | 17 | 1004.1 |
| 20260831030008 | 93 | 263 | 11.3 | 0.0 | 0.00 | 0.00 | 0.00 | 17 | 1003.9 |
| 20260831024509 | 93 | 281 | 8.7 | 0.0 | 0.00 | 0.00 | 0.00 | 17 | 1003.9 |
| 20260831023011 | 94 | 270 | 9.6 | 0.0 | 0.00 | 0.00 | 0.00 | 17 | 1003.9 |
| 20260831021504 | 94 | 277 | 10.4 | 0.0 | 0.00 | 0.00 | 0.00 | 17 | 1003.6 |
| 20260831020004 | 95 | 289 | 8.7 | 0.0 | 0.00 | 0.00 | 0.00 | 17 | 1003.7 |
| 20260831014503 | 96 | 292 | 8.7 | 0.0 | 0.00 | 0.00 | 0.00 | 17 | 1003.6 |
| 20260831013002 | 98 | 277 | 9.6 | 0.0 | 0.00 | 0.00 | 0.00 | 16 | 1003.5 |
| 20260831011600 | 99 | 279 | 8.7 | 0.0 | 0.00 | 0.00 | 0.00 | 16 | 1003.4 |
| 20260831010117 | 99 | 260 | 9.6 | 0.0 | 0.00 | 0.00 | 0.00 | 17 | 1003.2 |
| 20260831004607 | 100 | 243 | 8.7 | 0.0 | 0.00 | 0.00 | 0.00 | 17 | 1003.1 |
| 20260831003059 | 101 | 273 | 8.7 | 0.0 | 0.00 | 0.00 | 0.00 | 17 | 1003.1 |
| 20260831001558 | 101 | 228 | 9.6 | 0.0 | 0.00 | 0.00 | 0.00 | 17 | 1003.0 |
| 20260831000106 | 102 | 312 | 10.4 | 0.0 | 0.00 | 0.00 | 0.00 | 17 | 1002.8 |
| 20260830234622 | 102 | 318 | 10.4 | 0.0 | 0.00 | 0.00 | 0.00 | 16 | 1002.9 |
| 20260830233056 | 102 | 279 | 9.6 | 0.0 | 0.00 | 0.00 | 0.00 | 17 | 1002.9 |
| 20260830231556 | 103 | 263 | 11.3 | 0.0 | 0.00 | 0.00 | 0.00 | 17 | 1002.9 |
| 20260830231507 | 103 | 279 | 11.3 | 0.0 | 0.00 | 0.00 | 0.00 | 17 | 1002.9 |
| 20260830230055 | 104 | 270 | 9.6 | 0.0 | 0.00 | 0.00 | 0.00 | 16 | 1002.9 |
| 20260830224554 | 104 | 302 | 10.4 | 0.0 | 0.00 | 0.00 | 0.00 | 17 | 1003.0 |
| 20260830223053 | 105 | 272 | 7.8 | 0.0 | 0.00 | 0.00 | 0.00 | 17 | 1003.0 |
| 20260830221549 | 104 | 284 | 12.2 | 0.0 | 0.00 | 0.00 | 0.00 | 17 | 1003.3 |
| 20260830220046 | 103 | 56 | 5.2 | 0.0 | 0.00 | 0.00 | 0.00 | 16 | 1003.6 |
| 20260830214545 | 103 | 81 | 3.5 | 0.0 | 0.00 | 0.00 | 0.00 | 16 | 1003.7 |
| 20260830213055 | 103 | 77 | 4.3 | 0.0 | 0.00 | 0.00 | 0.00 | 16 | 1004.1 |
| 20260830211540 | 103 | 6 | 3.5 | 0.0 | 0.00 | 0.00 | 0.00 | 17 | 1004.3 |
| 20260830210039 | 103 | 27 | 4.3 | 0.0 | 0.00 | 0.00 | 0.00 | 17 | 1004.6 |
| 20260830204542 | 102 | 32 | 3.5 | 0.0 | 0.00 | 0.00 | 0.00 | 17 | 1004.9 |
| 20260830203036 | 102 | 322 | 2.6 | 0.0 | 0.00 | 0.00 | 0.00 | 17 | 1005.0 |
| 20260830201533 | 101 | 51 | 3.5 | 0.0 | 0.00 | 0.00 | 0.00 | 18 | 1005.3 |
| 20260830200032 | 101 | 18 | 4.3 | 0.0 | 0.00 | 0.00 | 0.00 | 18 | 1005.6 |
| 20260830194534 | 101 | 23 | 1.7 | 0.0 | 0.00 | 0.00 | 0.00 | 18 | 1005.8 |
| 20260830193033 | 100 | 337 | 2.6 | 0.0 | 0.00 | 0.00 | 0.00 | 19 | 1005.9 |
| 20260830191534 | 100 | 28 | 4.3 | 0.0 | 0.00 | 0.00 | 0.00 | 19 | 1006.2 |
| 20260830190025 | 99 | 229 | 1.7 | 0.0 | 0.00 | 0.00 | 0.00 | 19 | 1006.4 |
| 20260830184535 | 99 | 42 | 1.7 | 0.0 | 0.00 | 0.00 | 0.00 | 19 | 1006.7 |
| 20260830183021 | 97 | 47 | 5.2 | 0.0 | 0.00 | 0.00 | 0.00 | 20 | 1006.8 |
| 20260830181519 | 97 | 5 | 1.7 | 0.0 | 0.00 | 0.00 | 0.00 | 20 | 1007.0 |